| time (UTC) | temp F | wind direction | speed MPH | gust MPH | rain 1hr in | rain 24hr in | rain mn in | humidity % | barometer mb |
| 20260508111206 | 43 | 292 | 7.0 | 9.0 | 0.00 | 0.00 | 0.00 | 73 | 1002.1 |
| 20260508110703 | 43 | 308 | 5.0 | 7.0 | 0.00 | 0.00 | 0.00 | 74 | 1002.2 |
| 20260508110200 | 42 | 332 | 5.0 | 7.0 | 0.00 | 0.00 | 0.00 | 74 | 1002.0 |
| 20260508105700 | 42 | 336 | 5.0 | 7.0 | 0.00 | 0.00 | 0.00 | 74 | 1001.9 |
| 20260508105157 | 42 | 338 | 4.0 | 4.0 | 0.00 | 0.00 | 0.00 | 74 | 1002.1 |
| 20260508104655 | 42 | 315 | 1.0 | 3.0 | 0.00 | 0.00 | 0.00 | 74 | 1002.1 |
| 20260508104151 | 41 | 1 | 1.0 | 3.0 | 0.00 | 0.00 | 0.00 | 75 | 1002.1 |
| 20260508103648 | 40 | 352 | 1.0 | 7.0 | 0.00 | 0.00 | 0.00 | 77 | 1002.1 |
| 20260508103146 | 40 | 3 | 0.0 | 1.0 | 0.00 | 0.00 | 0.00 | 78 | 1002.2 |
| 20260508102642 | 39 | 78 | 1.0 | 1.0 | 0.00 | 0.00 | 0.00 | 79 | 1002.2 |
| 20260508102141 | 39 | 52 | 0.0 | 0.0 | 0.00 | 0.00 | 0.00 | 80 | 1002.1 |
| 20260508101637 | 38 | 42 | 0.0 | 1.0 | 0.00 | 0.00 | 0.00 | 81 | 1002.3 |
| 20260508101135 | 38 | 300 | 2.0 | 4.0 | 0.00 | 0.00 | 0.00 | 83 | 1002.3 |
| 20260508100632 | 37 | 24 | 1.0 | 1.0 | 0.00 | 0.00 | 0.00 | 84 | 1002.4 |
| 20260508100130 | 37 | 73 | 1.0 | 2.0 | 0.00 | 0.00 | 0.00 | 85 | 1002.5 |
| 20260508095627 | 36 | 76 | 0.0 | 0.0 | 0.00 | 0.00 | 0.00 | 85 | 1002.4 |
| 20260508095124 | 36 | 359 | 0.0 | 0.0 | 0.00 | 0.00 | 0.00 | 86 | 1002.4 |
| 20260508094621 | 36 | 95 | 0.0 | 0.0 | 0.00 | 0.00 | 0.00 | 86 | 1002.3 |
| 20260508094117 | 35 | 125 | 0.0 | 0.0 | 0.00 | 0.00 | 0.00 | 87 | 1002.3 |
| 20260508093615 | 35 | 204 | 0.0 | 2.0 | 0.00 | 0.00 | 0.00 | 87 | 1002.3 |
| 20260508093112 | 35 | 53 | 1.0 | 1.0 | 0.00 | 0.00 | 0.00 | 87 | 1002.1 |
| 20260508092609 | 35 | 324 | 1.0 | 1.0 | 0.00 | 0.00 | 0.00 | 88 | 1002.5 |
| 20260508092108 | 35 | 79 | 0.0 | 0.0 | 0.00 | 0.00 | 0.00 | 88 | 1002.4 |
| 20260508091604 | 35 | 79 | 0.0 | 0.0 | 0.00 | 0.00 | 0.00 | 89 | 1002.4 |
| 20260508091101 | 34 | 35 | 0.0 | 0.0 | 0.00 | 0.00 | 0.00 | 89 | 1002.3 |
| 20260508090600 | 34 | 76 | 0.0 | 0.0 | 0.00 | 0.00 | 0.00 | 89 | 1002.1 |
| 20260508090056 | 33 | 48 | 0.0 | 0.0 | 0.00 | 0.00 | 0.00 | 89 | 1002.3 |
| 20260508085552 | 33 | 48 | 0.0 | 0.0 | 0.00 | 0.00 | 0.00 | 88 | 1002.3 |
| 20260508085050 | 33 | 48 | 0.0 | 0.0 | 0.00 | 0.00 | 0.00 | 87 | 1002.3 |
| 20260508084546 | 34 | 34 | 0.0 | 0.0 | 0.00 | 0.00 | 0.00 | 86 | 1002.2 |
| 20260508084044 | 34 | 34 | 0.0 | 0.0 | 0.00 | 0.00 | 0.00 | 86 | 1002.2 |
| 20260508083541 | 34 | 28 | 0.0 | 0.0 | 0.00 | 0.00 | 0.00 | 87 | 1001.9 |
| 20260508083038 | 34 | 29 | 0.0 | 0.0 | 0.00 | 0.00 | 0.00 | 86 | 1002.1 |
| 20260508082534 | 34 | 29 | 0.0 | 0.0 | 0.00 | 0.00 | 0.00 | 86 | 1002.2 |
| 20260508082031 | 35 | 29 | 0.0 | 0.0 | 0.00 | 0.00 | 0.00 | 86 | 1002.1 |
| 20260508081528 | 34 | 26 | 0.0 | 0.0 | 0.00 | 0.00 | 0.00 | 86 | 1002.0 |
| 20260508081024 | 35 | 26 | 0.0 | 0.0 | 0.00 | 0.00 | 0.00 | 85 | 1001.8 |
| 20260508080522 | 35 | 26 | 0.0 | 0.0 | 0.00 | 0.00 | 0.00 | 85 | 1002.1 |
| 20260508080019 | 35 | 3 | 0.0 | 0.0 | 0.00 | 0.00 | 0.00 | 84 | 1001.6 |
| 20260508075516 | 35 | 355 | 0.0 | 0.0 | 0.00 | 0.00 | 0.00 | 85 | 1001.8 |
| 20260508075014 | 35 | 341 | 0.0 | 0.0 | 0.00 | 0.00 | 0.00 | 85 | 1001.9 |
| 20260508074511 | 35 | 51 | 0.0 | 0.0 | 0.00 | 0.00 | 0.00 | 86 | 1001.7 |
| 20260508074008 | 35 | 51 | 0.0 | 0.0 | 0.00 | 0.00 | 0.00 | 85 | 1001.8 |
| 20260508073505 | 35 | 51 | 0.0 | 0.0 | 0.00 | 0.00 | 0.00 | 86 | 1001.8 |
| 20260508073002 | 35 | 47 | 0.0 | 0.0 | 0.00 | 0.00 | 0.00 | 86 | 1001.8 |
| 20260508072458 | 35 | 12 | 0.0 | 0.0 | 0.00 | 0.00 | 0.00 | 85 | 1001.7 |
| 20260508071955 | 36 | 12 | 0.0 | 0.0 | 0.00 | 0.00 | 0.00 | 84 | 1002.1 |
| 20260508071453 | 36 | 45 | 0.0 | 0.0 | 0.00 | 0.00 | 0.00 | 84 | 1001.9 |
| 20260508070951 | 36 | 45 | 0.0 | 0.0 | 0.00 | 0.00 | 0.00 | 82 | 1002.0 |
| 20260508070448 | 36 | 45 | 0.0 | 0.0 | 0.00 | 0.00 | 0.00 | 81 | 1001.8 |
| 20260508065946 | 37 | 24 | 0.0 | 0.0 | 0.00 | 0.00 | 0.00 | 81 | 1001.8 |
| 20260508065444 | 37 | 12 | 0.0 | 0.0 | 0.00 | 0.00 | 0.00 | 79 | 1001.9 |
| 20260508064942 | 38 | 358 | 0.0 | 0.0 | 0.00 | 0.00 | 0.00 | 76 | 1001.9 |
| 20260508064439 | 39 | 67 | 0.0 | 0.0 | 0.00 | 0.00 | 0.00 | 74 | 1002.0 |
| 20260508063937 | 38 | 43 | 0.0 | 1.0 | 0.00 | 0.00 | 0.00 | 76 | 1002.0 |
| 20260508063434 | 38 | 60 | 0.0 | 2.0 | 0.00 | 0.00 | 0.00 | 80 | 1001.8 |
| 20260508062931 | 38 | 59 | 0.0 | 0.0 | 0.00 | 0.00 | 0.00 | 81 | 1001.9 |
| 20260508062429 | 38 | 4 | 0.0 | 0.0 | 0.00 | 0.00 | 0.00 | 79 | 1001.7 |
| 20260508061926 | 38 | 19 | 1.0 | 1.0 | 0.00 | 0.00 | 0.00 | 79 | 1001.9 |
| 20260508061424 | 39 | 308 | 0.0 | 0.0 | 0.00 | 0.00 | 0.00 | 75 | 1001.7 |
| 20260508060919 | 39 | 14 | 1.0 | 1.0 | 0.00 | 0.00 | 0.00 | 73 | 1001.9 |
| 20260508060417 | 40 | 54 | 1.0 | 1.0 | 0.00 | 0.00 | 0.00 | 72 | 1001.9 |
| 20260508055913 | 40 | 356 | 0.0 | 0.0 | 0.00 | 0.00 | 0.00 | 71 | 1002.1 |
| 20260508055410 | 41 | 292 | 1.0 | 1.0 | 0.00 | 0.00 | 0.00 | 69 | 1001.7 |
| 20260508054906 | 40 | 57 | 1.0 | 2.0 | 0.00 | 0.00 | 0.00 | 70 | 1001.9 |
| 20260508054404 | 41 | 7 | 0.0 | 0.0 | 0.00 | 0.00 | 0.00 | 69 | 1001.9 |
| 20260508053900 | 42 | 33 | 0.0 | 1.0 | 0.00 | 0.00 | 0.00 | 68 | 1001.8 |
| 20260508053358 | 42 | 357 | 0.0 | 2.0 | 0.00 | 0.00 | 0.00 | 68 | 1001.9 |
| 20260508052855 | 42 | 47 | 0.0 | 3.0 | 0.00 | 0.00 | 0.00 | 68 | 1002.1 |
| 20260508052353 | 42 | 345 | 1.0 | 3.0 | 0.00 | 0.00 | 0.00 | 69 | 1002.0 |
| 20260508051849 | 42 | 20 | 1.0 | 4.0 | 0.00 | 0.00 | 0.00 | 70 | 1001.9 |
| 20260508051344 | 41 | 354 | 0.0 | 2.0 | 0.00 | 0.00 | 0.00 | 72 | 1002.2 |
| 20260508050840 | 41 | 325 | 3.0 | 3.0 | 0.00 | 0.00 | 0.00 | 71 | 1002.1 |
| 20260508050338 | 42 | 32 | 0.0 | 1.0 | 0.00 | 0.00 | 0.00 | 70 | 1002.2 |
| 20260508045833 | 42 | 77 | 1.0 | 2.0 | 0.00 | 0.00 | 0.00 | 69 | 1002.3 |
| 20260508045331 | 42 | 37 | 2.0 | 4.0 | 0.00 | 0.00 | 0.00 | 68 | 1002.2 |
| 20260508044829 | 42 | 331 | 3.0 | 4.0 | 0.00 | 0.00 | 0.00 | 69 | 1002.4 |
| 20260508044325 | 42 | 314 | 2.0 | 3.0 | 0.00 | 0.00 | 0.00 | 69 | 1002.0 |
| 20260508043821 | 42 | 12 | 2.0 | 4.0 | 0.00 | 0.00 | 0.00 | 69 | 1002.2 |
| 20260508043319 | 42 | 323 | 5.0 | 7.0 | 0.00 | 0.00 | 0.00 | 72 | 1002.4 |
| 20260508042815 | 42 | 348 | 1.0 | 3.0 | 0.00 | 0.00 | 0.00 | 71 | 1002.4 |
| 20260508042313 | 42 | 22 | 2.0 | 3.0 | 0.00 | 0.00 | 0.00 | 72 | 1002.6 |
| 20260508041809 | 42 | 52 | 2.0 | 2.0 | 0.00 | 0.00 | 0.00 | 71 | 1002.5 |
| 20260508041306 | 42 | 46 | 1.0 | 2.0 | 0.00 | 0.00 | 0.00 | 72 | 1002.4 |
| 20260508040802 | 42 | 41 | 0.0 | 1.0 | 0.00 | 0.00 | 0.00 | 73 | 1002.4 |
| 20260508040300 | 41 | 14 | 0.0 | 0.0 | 0.00 | 0.00 | 0.00 | 75 | 1002.5 |
| 20260508035757 | 42 | 28 | 0.0 | 0.0 | 0.00 | 0.19 | 0.19 | 75 | 1002.3 |
| 20260508035254 | 42 | 297 | 0.0 | 0.0 | 0.00 | 0.19 | 0.19 | 74 | 1002.5 |
| 20260508034751 | 43 | 56 | 0.0 | 0.0 | 0.00 | 0.19 | 0.19 | 72 | 1002.6 |
| 20260508034248 | 43 | 324 | 0.0 | 1.0 | 0.00 | 0.19 | 0.19 | 72 | 1002.6 |
| 20260508033745 | 42 | 49 | 1.0 | 2.0 | 0.00 | 0.19 | 0.19 | 76 | 1002.5 |
| 20260508033243 | 42 | 29 | 0.0 | 1.0 | 0.00 | 0.19 | 0.19 | 77 | 1002.4 |
| 20260508032741 | 43 | 332 | 0.0 | 0.0 | 0.00 | 0.19 | 0.19 | 77 | 1002.3 |
| 20260508032238 | 43 | 28 | 0.0 | 1.0 | 0.00 | 0.19 | 0.19 | 77 | 1002.2 |
| 20260508031734 | 43 | 25 | 0.0 | 0.0 | 0.00 | 0.19 | 0.19 | 76 | 1002.2 |
| 20260508031231 | 44 | 37 | 0.0 | 1.0 | 0.00 | 0.19 | 0.19 | 75 | 1002.0 |
| 20260508030727 | 45 | 307 | 2.0 | 3.0 | 0.00 | 0.19 | 0.19 | 73 | 1002.3 |
| 20260508030225 | 45 | 1 | 0.0 | 1.0 | 0.00 | 0.19 | 0.19 | 74 | 1002.1 |
| 20260508025721 | 45 | 322 | 1.0 | 2.0 | 0.00 | 0.19 | 0.19 | 74 | 1002.1 |
| 20260508025218 | 45 | 328 | 1.0 | 4.0 | 0.00 | 0.19 | 0.19 | 75 | 1001.9 |
| 20260508024714 | 45 | 329 | 0.0 | 2.0 | 0.00 | 0.19 | 0.19 | 76 | 1001.9 |
| 20260508024211 | 46 | 311 | 3.0 | 3.0 | 0.00 | 0.19 | 0.19 | 76 | 1001.9 |
| 20260508023707 | 46 | 333 | 2.0 | 6.0 | 0.00 | 0.19 | 0.19 | 76 | 1002.1 |
| 20260508023206 | 46 | 347 | 3.0 | 3.0 | 0.00 | 0.19 | 0.19 | 77 | 1001.7 |
| 20260508022701 | 47 | 4 | 1.0 | 6.0 | 0.00 | 0.19 | 0.19 | 76 | 1002.0 |
| 20260508022158 | 47 | 7 | 3.0 | 7.0 | 0.00 | 0.19 | 0.19 | 76 | 1001.8 |
| 20260508021654 | 47 | 334 | 2.0 | 4.0 | 0.00 | 0.19 | 0.19 | 77 | 1001.8 |
| 20260508021150 | 47 | 346 | 4.0 | 6.0 | 0.00 | 0.19 | 0.19 | 76 | 1002.1 |
| 20260508020648 | 48 | 293 | 2.0 | 8.0 | 0.00 | 0.19 | 0.19 | 76 | 1001.9 |
| 20260508020145 | 48 | 309 | 3.0 | 4.0 | 0.00 | 0.19 | 0.19 | 79 | 1002.0 |
| 20260508015642 | 48 | 307 | 6.0 | 15.0 | 0.00 | 0.19 | 0.19 | 81 | 1001.9 |
| 20260508015139 | 48 | 331 | 8.0 | 14.0 | 0.00 | 0.19 | 0.19 | 83 | 1002.2 |
| 20260508014636 | 48 | 310 | 5.0 | 7.0 | 0.00 | 0.19 | 0.19 | 87 | 1001.8 |
| 20260508014132 | 49 | 348 | 2.0 | 6.0 | 0.00 | 0.19 | 0.19 | 86 | 1002.0 |
| 20260508013628 | 49 | 340 | 3.0 | 9.0 | 0.00 | 0.19 | 0.19 | 87 | 1002.0 |
| 20260508013125 | 49 | 350 | 4.0 | 8.0 | 0.00 | 0.19 | 0.19 | 85 | 1001.9 |
| 20260508012623 | 50 | 305 | 7.0 | 11.0 | 0.00 | 0.19 | 0.19 | 82 | 1001.8 |
| 20260508012120 | 51 | 285 | 7.0 | 13.0 | 0.00 | 0.19 | 0.19 | 78 | 1001.8 |
| 20260508011618 | 51 | 287 | 6.0 | 10.0 | 0.00 | 0.19 | 0.19 | 75 | 1001.4 |
| 20260508011115 | 51 | 312 | 7.0 | 8.0 | 0.00 | 0.19 | 0.19 | 75 | 1001.5 |
| 20260508010611 | 52 | 341 | 6.0 | 13.0 | 0.00 | 0.19 | 0.19 | 75 | 1001.3 |
| 20260508010110 | 51 | 321 | 10.0 | 15.0 | 0.00 | 0.19 | 0.19 | 75 | 1001.1 |
| 20260508005606 | 51 | 322 | 3.0 | 8.0 | 0.00 | 0.19 | 0.19 | 75 | 1001.1 |
| 20260508005102 | 50 | 346 | 2.0 | 3.0 | 0.00 | 0.19 | 0.19 | 79 | 1000.7 |
| 20260508004558 | 50 | 26 | 0.0 | 0.0 | 0.00 | 0.19 | 0.19 | 81 | 1000.7 |
| 20260508004055 | 49 | 35 | 0.0 | 2.0 | 0.00 | 0.19 | 0.19 | 81 | 1000.7 |
| 20260508003552 | 50 | 14 | 0.0 | 0.0 | 0.00 | 0.19 | 0.19 | 80 | 1000.6 |
| 20260508003049 | 51 | 16 | 0.0 | 0.0 | 0.00 | 0.19 | 0.19 | 78 | 1000.6 |
| 20260508002545 | 51 | 14 | 0.0 | 1.0 | 0.00 | 0.19 | 0.19 | 77 | 1000.5 |
| 20260508002043 | 52 | 324 | 1.0 | 2.0 | 0.00 | 0.19 | 0.19 | 76 | 1000.1 |
| 20260508001538 | 52 | 342 | 0.0 | 2.0 | 0.00 | 0.19 | 0.19 | 77 | 1000.2 |
| 20260508001035 | 52 | 307 | 2.0 | 6.0 | 0.00 | 0.19 | 0.19 | 76 | 1000.2 |
| 20260508000531 | 52 | 315 | 3.0 | 6.0 | 0.00 | 0.19 | 0.19 | 77 | 1000.1 |
| 20260508000029 | 52 | 274 | 4.0 | 4.0 | 0.00 | 0.19 | 0.19 | 77 | 1000.2 |
| 20260507235525 | 53 | 335 | 5.0 | 8.0 | 0.00 | 0.19 | 0.19 | 77 | 1000.1 |
| 20260507235022 | 53 | 351 | 4.0 | 4.0 | 0.00 | 0.19 | 0.19 | 77 | 1000.2 |
| 20260507234519 | 53 | 352 | 2.0 | 6.0 | 0.00 | 0.19 | 0.19 | 76 | 1000.3 |
| 20260507234015 | 53 | 287 | 5.0 | 6.0 | 0.00 | 0.19 | 0.19 | 76 | 1000.4 |
| 20260507233512 | 53 | 343 | 7.0 | 8.0 | 0.00 | 0.19 | 0.19 | 75 | 1000.2 |
| 20260507233011 | 53 | 326 | 3.0 | 8.0 | 0.00 | 0.19 | 0.19 | 74 | 1000.1 |
| 20260507232506 | 54 | 321 | 4.0 | 7.0 | 0.00 | 0.19 | 0.19 | 74 | 1000.0 |
| 20260507232004 | 54 | 330 | 4.0 | 7.0 | 0.00 | 0.19 | 0.19 | 74 | 1000.1 |
| 20260507231500 | 54 | 317 | 3.0 | 8.0 | 0.00 | 0.19 | 0.19 | 73 | 1000.2 |
| 20260507230957 | 54 | 312 | 2.0 | 6.0 | 0.00 | 0.19 | 0.19 | 73 | 1000.0 |
| 20260507230454 | 55 | 12 | 3.0 | 7.0 | 0.00 | 0.19 | 0.19 | 72 | 999.9 |
| 20260507225949 | 55 | 359 | 9.0 | 14.0 | 0.00 | 0.19 | 0.19 | 71 | 999.5 |
| 20260507225446 | 55 | 355 | 4.0 | 6.0 | 0.00 | 0.19 | 0.19 | 71 | 999.6 |
| 20260507224942 | 56 | 311 | 9.0 | 11.0 | 0.00 | 0.19 | 0.19 | 69 | 999.7 |
| 20260507224438 | 56 | 13 | 2.0 | 4.0 | 0.00 | 0.19 | 0.19 | 65 | 999.5 |
| 20260507223935 | 56 | 281 | 0.0 | 2.0 | 0.00 | 0.19 | 0.19 | 65 | 999.1 |
| 20260507223431 | 56 | 109 | 0.0 | 1.0 | 0.00 | 0.19 | 0.19 | 65 | 999.3 |
| 20260507222928 | 56 | 46 | 0.0 | 1.0 | 0.00 | 0.19 | 0.19 | 65 | 999.2 |
| 20260507222425 | 56 | 141 | 0.0 | 0.0 | 0.00 | 0.19 | 0.19 | 64 | 999.2 |
| 20260507221921 | 56 | 350 | 1.0 | 3.0 | 0.00 | 0.19 | 0.19 | 63 | 999.1 |
| 20260507221418 | 56 | 306 | 1.0 | 3.0 | 0.00 | 0.19 | 0.19 | 62 | 998.9 |
| 20260507220914 | 57 | 262 | 2.0 | 2.0 | 0.00 | 0.19 | 0.19 | 63 | 999.0 |
| 20260507220412 | 57 | 310 | 0.0 | 3.0 | 0.00 | 0.19 | 0.19 | 63 | 998.8 |
| 20260507215908 | 57 | 52 | 1.0 | 3.0 | 0.00 | 0.19 | 0.19 | 62 | 998.7 |
| 20260507215405 | 57 | 119 | 2.0 | 6.0 | 0.00 | 0.19 | 0.19 | 62 | 999.1 |
| 20260507214902 | 58 | 188 | 3.0 | 6.0 | 0.00 | 0.19 | 0.19 | 63 | 999.0 |
| 20260507214400 | 57 | 122 | 0.0 | 2.0 | 0.00 | 0.19 | 0.19 | 63 | 999.0 |
| 20260507213855 | 56 | 231 | 1.0 | 3.0 | 0.00 | 0.19 | 0.19 | 66 | 999.0 |
| 20260507213352 | 56 | 271 | 0.0 | 3.0 | 0.00 | 0.19 | 0.19 | 66 | 998.9 |
| 20260507212849 | 56 | 258 | 2.0 | 6.0 | 0.00 | 0.19 | 0.19 | 65 | 998.9 |
| 20260507212345 | 56 | 195 | 1.0 | 2.0 | 0.00 | 0.19 | 0.19 | 65 | 999.0 |
| 20260507211842 | 56 | 224 | 1.0 | 4.0 | 0.00 | 0.19 | 0.19 | 66 | 998.9 |
| 20260507211339 | 56 | 130 | 2.0 | 10.0 | 0.00 | 0.19 | 0.19 | 65 | 998.7 |
| 20260507210835 | 55 | 220 | 4.0 | 9.0 | 0.00 | 0.19 | 0.19 | 66 | 998.6 |
| 20260507210332 | 55 | 99 | 2.0 | 7.0 | 0.00 | 0.19 | 0.19 | 66 | 998.8 |
| 20260507205829 | 55 | 224 | 4.0 | 8.0 | 0.00 | 0.19 | 0.19 | 65 | 998.7 |
| 20260507205326 | 56 | 167 | 5.0 | 7.0 | 0.00 | 0.19 | 0.19 | 66 | 999.0 |
| 20260507204822 | 56 | 49 | 5.0 | 7.0 | 0.00 | 0.19 | 0.19 | 66 | 998.9 |
| 20260507204319 | 56 | 16 | 4.0 | 6.0 | 0.00 | 0.19 | 0.19 | 67 | 998.8 |
| 20260507203817 | 55 | 127 | 5.0 | 7.0 | 0.00 | 0.19 | 0.19 | 67 | 998.6 |
| 20260507203315 | 55 | 92 | 2.0 | 8.0 | 0.00 | 0.19 | 0.19 | 67 | 999.0 |
| 20260507202811 | 56 | 191 | 4.0 | 8.0 | 0.00 | 0.19 | 0.19 | 68 | 998.7 |
| 20260507202307 | 56 | 193 | 2.0 | 7.0 | 0.00 | 0.19 | 0.19 | 67 | 998.8 |
| 20260507201802 | 57 | 283 | 4.0 | 7.0 | 0.00 | 0.19 | 0.19 | 65 | 998.6 |
| 20260507201258 | 56 | 139 | 6.0 | 7.0 | 0.00 | 0.19 | 0.19 | 67 | 998.6 |
| 20260507200755 | 56 | 243 | 4.0 | 8.0 | 0.00 | 0.19 | 0.19 | 67 | 998.8 |
| 20260507200251 | 56 | 173 | 5.0 | 10.0 | 0.00 | 0.19 | 0.19 | 65 | 998.9 |
| 20260507195747 | 56 | 87 | 4.0 | 8.0 | 0.00 | 0.19 | 0.19 | 66 | 998.7 |
| 20260507195245 | 58 | 181 | 7.0 | 13.0 | 0.00 | 0.19 | 0.19 | 63 | 998.8 |
| 20260507194742 | 59 | 96 | 4.0 | 7.0 | 0.00 | 0.19 | 0.19 | 63 | 998.6 |
| 20260507194238 | 59 | 62 | 7.0 | 11.0 | 0.00 | 0.19 | 0.19 | 62 | 998.5 |
| 20260507193734 | 59 | 147 | 5.0 | 9.0 | 0.00 | 0.19 | 0.19 | 66 | 998.8 |
| 20260507193231 | 58 | 134 | 5.0 | 8.0 | 0.00 | 0.19 | 0.19 | 67 | 998.7 |
| 20260507192727 | 58 | 119 | 3.0 | 8.0 | 0.00 | 0.19 | 0.19 | 68 | 998.8 |
| 20260507192224 | 58 | 128 | 4.0 | 7.0 | 0.00 | 0.19 | 0.19 | 67 | 998.9 |
| 20260507191720 | 57 | 150 | 6.0 | 9.0 | 0.00 | 0.19 | 0.19 | 67 | 998.8 |
| 20260507191218 | 58 | 159 | 5.0 | 13.0 | 0.00 | 0.19 | 0.19 | 67 | 998.6 |
| 20260507190714 | 59 | 19 | 5.0 | 8.0 | 0.00 | 0.19 | 0.19 | 65 | 998.9 |
| 20260507190213 | 57 | 139 | 3.0 | 10.0 | 0.00 | 0.19 | 0.19 | 69 | 999.2 |
| 20260507185711 | 58 | 175 | 4.0 | 11.0 | 0.00 | 0.19 | 0.19 | 67 | 999.2 |
| 20260507185208 | 59 | 138 | 7.0 | 9.0 | 0.00 | 0.19 | 0.19 | 67 | 999.1 |
| 20260507184705 | 58 | 205 | 4.0 | 11.0 | 0.00 | 0.19 | 0.19 | 68 | 998.9 |
| 20260507184203 | 58 | 128 | 7.0 | 8.0 | 0.00 | 0.19 | 0.19 | 69 | 998.9 |
| 20260507183654 | 57 | 130 | 6.0 | 10.0 | 0.00 | 0.19 | 0.19 | 72 | 999.0 |
| 20260507183151 | 58 | 181 | 9.0 | 11.0 | 0.00 | 0.19 | 0.19 | 69 | 999.0 |
| 20260507182648 | 58 | 166 | 8.0 | 11.0 | 0.00 | 0.19 | 0.19 | 70 | 999.1 |
| 20260507182143 | 57 | 145 | 10.0 | 11.0 | 0.00 | 0.19 | 0.19 | 72 | 999.2 |
| 20260507181640 | 58 | 101 | 6.0 | 10.0 | 0.00 | 0.19 | 0.19 | 70 | 999.2 |
| 20260507181137 | 58 | 152 | 6.0 | 10.0 | 0.00 | 0.19 | 0.19 | 70 | 999.1 |
| 20260507180633 | 58 | 154 | 6.0 | 8.0 | 0.00 | 0.19 | 0.19 | 71 | 999.3 |
| 20260507180131 | 57 | 160 | 6.0 | 11.0 | 0.00 | 0.19 | 0.19 | 71 | 999.0 |
| 20260507175626 | 58 | 154 | 4.0 | 8.0 | 0.00 | 0.19 | 0.19 | 70 | 999.0 |
| 20260507175124 | 58 | 178 | 6.0 | 8.0 | 0.00 | 0.19 | 0.19 | 72 | 999.0 |
| 20260507174620 | 59 | 126 | 7.0 | 10.0 | 0.00 | 0.19 | 0.19 | 68 | 999.1 |
| 20260507174119 | 59 | 130 | 5.0 | 10.0 | 0.00 | 0.19 | 0.19 | 69 | 999.3 |
| 20260507173615 | 59 | 109 | 4.0 | 10.0 | 0.00 | 0.19 | 0.19 | 65 | 999.0 |
| 20260507173112 | 58 | 153 | 6.0 | 7.0 | 0.00 | 0.19 | 0.19 | 68 | 999.2 |
| 20260507172608 | 59 | 128 | 5.0 | 6.0 | 0.00 | 0.19 | 0.19 | 68 | 998.9 |
| 20260507172106 | 58 | 235 | 3.0 | 8.0 | 0.00 | 0.19 | 0.19 | 69 | 999.1 |
| 20260507171601 | 58 | 165 | 4.0 | 9.0 | 0.00 | 0.19 | 0.19 | 70 | 999.3 |
| 20260507171058 | 58 | 130 | 7.0 | 8.0 | 0.00 | 0.19 | 0.19 | 69 | 999.4 |
| 20260507170555 | 60 | 154 | 6.0 | 8.0 | 0.00 | 0.19 | 0.19 | 68 | 999.4 |
| 20260507170052 | 60 | 312 | 3.0 | 3.0 | 0.00 | 0.19 | 0.19 | 55 | 999.5 |
| 20260507165547 | 60 | 170 | 1.0 | 2.0 | 0.00 | 0.19 | 0.19 | 55 | 999.4 |
| 20260507165044 | 61 | 269 | 3.0 | 6.0 | 0.00 | 0.19 | 0.19 | 56 | 999.2 |
| 20260507164540 | 61 | 161 | 0.0 | 1.0 | 0.00 | 0.19 | 0.19 | 54 | 999.2 |
| 20260507164037 | 60 | 304 | 2.0 | 6.0 | 0.00 | 0.19 | 0.19 | 57 | 999.6 |
| 20260507163535 | 60 | 298 | 2.0 | 7.0 | 0.00 | 0.19 | 0.19 | 60 | 999.4 |
| 20260507163032 | 59 | 306 | 2.0 | 4.0 | 0.00 | 0.19 | 0.19 | 60 | 999.6 |
| 20260507162527 | 58 | 317 | 5.0 | 6.0 | 0.00 | 0.19 | 0.19 | 60 | 999.5 |
| 20260507162024 | 58 | 354 | 2.0 | 4.0 | 0.00 | 0.19 | 0.19 | 59 | 999.6 |
| 20260507161520 | 57 | 328 | 6.0 | 8.0 | 0.00 | 0.19 | 0.19 | 63 | 1000.0 |
| 20260507161018 | 57 | 7 | 3.0 | 8.0 | 0.00 | 0.19 | 0.19 | 63 | 1000.0 |
| 20260507160513 | 58 | 332 | 2.0 | 7.0 | 0.00 | 0.19 | 0.19 | 68 | 1000.0 |
| 20260507160010 | 57 | 47 | 3.0 | 8.0 | 0.00 | 0.19 | 0.19 | 65 | 1000.1 |
| 20260507155505 | 55 | 29 | 4.0 | 4.0 | 0.00 | 0.19 | 0.19 | 68 | 1000.2 |
| 20260507155003 | 55 | 305 | 4.0 | 6.0 | 0.00 | 0.19 | 0.19 | 71 | 1000.4 |
| 20260507154459 | 55 | 32 | 3.0 | 4.0 | 0.00 | 0.19 | 0.19 | 70 | 1000.6 |
| 20260507153956 | 55 | 282 | 5.0 | 7.0 | 0.00 | 0.19 | 0.19 | 70 | 1000.7 |
| 20260507153453 | 55 | 308 | 4.0 | 6.0 | 0.00 | 0.19 | 0.19 | 74 | 1000.9 |
| 20260507152949 | 55 | 352 | 2.0 | 9.0 | 0.00 | 0.19 | 0.19 | 75 | 1000.9 |
| 20260507152445 | 55 | 325 | 2.0 | 3.0 | 0.00 | 0.19 | 0.19 | 77 | 1000.4 |
| 20260507151942 | 54 | 113 | 1.0 | 7.0 | 0.00 | 0.19 | 0.19 | 76 | 1000.4 |
| 20260507151438 | 53 | 287 | 2.0 | 4.0 | 0.00 | 0.19 | 0.19 | 78 | 1000.3 |
| 20260507150935 | 53 | 340 | 3.0 | 6.0 | 0.00 | 0.19 | 0.19 | 78 | 1000.4 |
| 20260507150432 | 53 | 37 | 1.0 | 7.0 | 0.00 | 0.19 | 0.19 | 77 | 1000.7 |
| 20260507145928 | 53 | 331 | 3.0 | 3.0 | 0.00 | 0.19 | 0.19 | 83 | 1000.4 |
| 20260507145424 | 52 | 1 | 3.0 | 6.0 | 0.00 | 0.19 | 0.19 | 82 | 1000.7 |
| 20260507144921 | 51 | 333 | 2.0 | 3.0 | 0.00 | 0.19 | 0.19 | 82 | 1001.1 |
| 20260507144418 | 51 | 36 | 4.0 | 7.0 | 0.00 | 0.19 | 0.19 | 85 | 1000.8 |
| 20260507143915 | 51 | 295 | 2.0 | 4.0 | 0.00 | 0.19 | 0.19 | 85 | 1001.2 |
| 20260507143413 | 51 | 330 | 5.0 | 6.0 | 0.00 | 0.19 | 0.19 | 85 | 1001.0 |
| 20260507142909 | 51 | 332 | 1.0 | 4.0 | 0.00 | 0.19 | 0.19 | 87 | 1001.2 |
| 20260507142404 | 52 | 110 | 1.0 | 3.0 | 0.00 | 0.19 | 0.19 | 86 | 1001.3 |
| 20260507141902 | 51 | 323 | 4.0 | 7.0 | 0.00 | 0.19 | 0.19 | 87 | 1001.2 |
| 20260507141358 | 50 | 316 | 2.0 | 4.0 | 0.00 | 0.19 | 0.19 | 89 | 1001.4 |
| 20260507140855 | 49 | 18 | 5.0 | 6.0 | 0.05 | 0.19 | 0.19 | 89 | 1001.4 |
| 20260507140352 | 50 | 339 | 8.0 | 9.0 | 0.05 | 0.19 | 0.19 | 91 | 1001.6 |
| 20260507135849 | 49 | 335 | 3.0 | 3.0 | 0.00 | 0.18 | 0.18 | 92 | 1001.6 |
| 20260507135346 | 49 | 346 | 3.0 | 4.0 | 0.00 | 0.18 | 0.18 | 91 | 1002.3 |
| 20260507134843 | 50 | 353 | 3.0 | 6.0 | 0.00 | 0.18 | 0.18 | 91 | 1001.8 |
| 20260507134339 | 49 | 308 | 4.0 | 6.0 | 0.00 | 0.18 | 0.18 | 93 | 1001.8 |
| 20260507133835 | 49 | 303 | 5.0 | 8.0 | 0.00 | 0.18 | 0.18 | 93 | 1001.3 |
| 20260507133331 | 49 | 302 | 3.0 | 6.0 | 0.00 | 0.18 | 0.18 | 94 | 1001.2 |
| 20260507132830 | 49 | 326 | 3.0 | 7.0 | 0.00 | 0.18 | 0.18 | 94 | 1001.3 |
| 20260507132326 | 49 | 315 | 2.0 | 4.0 | 0.00 | 0.18 | 0.18 | 94 | 1001.3 |
| 20260507131823 | 48 | 2 | 1.0 | 3.0 | 0.00 | 0.18 | 0.18 | 95 | 1001.4 |
| 20260507131320 | 48 | 329 | 3.0 | 4.0 | 0.00 | 0.18 | 0.18 | 94 | 1001.5 |
| 20260507130816 | 48 | 348 | 2.0 | 4.0 | 0.00 | 0.18 | 0.18 | 95 | 1001.7 |
| 20260507130314 | 48 | 343 | 3.0 | 6.0 | 0.00 | 0.18 | 0.18 | 95 | 1001.4 |
| 20260507125813 | 48 | 1 | 2.0 | 3.0 | 0.00 | 0.18 | 0.18 | 96 | 1001.4 |
| 20260507125310 | 48 | 325 | 2.0 | 3.0 | 0.00 | 0.18 | 0.18 | 96 | 1001.3 |
| 20260507124807 | 48 | 322 | 4.0 | 7.0 | 0.00 | 0.18 | 0.18 | 96 | 1001.1 |
| 20260507124303 | 48 | 341 | 2.0 | 4.0 | 0.00 | 0.18 | 0.18 | 97 | 1001.4 |
| 20260507123802 | 48 | 40 | 2.0 | 3.0 | 0.00 | 0.18 | 0.18 | 97 | 1001.3 |
| 20260507123258 | 48 | 0 | 7.0 | 9.0 | 0.00 | 0.18 | 0.18 | 97 | 1001.9 |
| 20260507122754 | 47 | 318 | 5.0 | 8.0 | 0.00 | 0.18 | 0.18 | 97 | 1001.9 |
| 20260507122249 | 47 | 7 | 3.0 | 7.0 | 0.00 | 0.18 | 0.18 | 97 | 1001.3 |
| 20260507121746 | 47 | 292 | 2.0 | 4.0 | 0.00 | 0.18 | 0.18 | 97 | 1001.0 |
| 20260507121241 | 48 | 336 | 2.0 | 7.0 | 0.00 | 0.18 | 0.18 | 98 | 1001.5 |
| 20260507120738 | 48 | 332 | 3.0 | 4.0 | 0.00 | 0.18 | 0.18 | 98 | 1001.9 |
| 20260507120235 | 48 | 314 | 1.0 | 6.0 | 0.00 | 0.18 | 0.18 | 98 | 1001.9 |
| 20260507115731 | 48 | 311 | 2.0 | 4.0 | 0.00 | 0.18 | 0.18 | 98 | 1001.7 |
| 20260507115228 | 48 | 325 | 2.0 | 3.0 | 0.00 | 0.18 | 0.18 | 98 | 1002.1 |
| 20260507114723 | 48 | 331 | 2.0 | 3.0 | 0.00 | 0.18 | 0.18 | 98 | 1002.3 |
| 20260507114221 | 48 | 354 | 1.0 | 2.0 | 0.00 | 0.18 | 0.18 | 98 | 1002.2 |
| 20260507113718 | 48 | 341 | 2.0 | 3.0 | 0.00 | 0.18 | 0.18 | 98 | 1002.0 |
| 20260507113215 | 48 | 347 | 1.0 | 3.0 | 0.00 | 0.18 | 0.18 | 98 | 1001.8 |
| 20260507112712 | 48 | 325 | 0.0 | 2.0 | 0.00 | 0.18 | 0.18 | 98 | 1001.9 |
| 20260507112209 | 48 | 339 | 1.0 | 2.0 | 0.00 | 0.18 | 0.18 | 98 | 1002.1 |
| 20260507111706 | 48 | 291 | 0.0 | 1.0 | 0.00 | 0.18 | 0.18 | 98 | 1001.7 |